Tracking 19847 objects as of 15-Sep-2019
HD Live streaming from Space Station
objects crossing your sky now

DMSP 5D-2 F11 DEB

Track DMSP 5D-2 F11 DEB now!
10-day predictions


NORAD ID: 28318
Int'l Code: 1991-082AF
Perigee: 744.1 km
Apogee: 821.8 km
Inclination: 98.8 °
Period: 100.4 minutes
Semi major axis: 7153 km
RCS: 0.0172 m2 (small)
Launch date: November 28, 1991
Source: United States (US)
Launch site: AIR FORCE WESTERN TEST RANGE (AFWTR)

Note: This is SATELLITE DEBRIS
aabbcc
Your satellite tracking list
Your tracking list is empty




NASA's NSSDC Master Catalog

Two Line Element Set (TLE):
1 28318U 91082AF  19257.39657791  .00001222  00000-0  43954-3 0  9998
2 28318  98.7764 311.6403 0054320  40.5638  23.2437 14.34774442796983
Source of the keplerian elements: AFSPC